• Join FlightAware (Why Join?)
  • Login
  • US Flag 
03:31PM EDT


 

Airport Tracker/Info


-or-


 

Live Flight TrackerFlight Track Log ✈ EJA929 ✈ 11-Jul-2013 ✈ KOKC - KHOU

Flight Track Log - Related Links

Times and Time Zones

All times are in EDT time to prevent confusion due to time zone crossing. See the EJA929 flight status page for this flight to view local times or setup timezone preferences in your user account.

Time Position Orientation Groundspeed Altitude Reporting Facility
EDT Latitude Longitude Course Direction KTS MPH feet Rate Location/Type
10:50AM 35.3706 -97.6122 171° South 182 209 2,100  Level Fort Worth Center
10:51AM 35.2997 -97.5992 171° South 241 277 5,000 3,240 Climbing Fort Worth Center
10:52AM 35.2142 -97.5914 176° South 268 308 9,300 3,660 Climbing Fort Worth Center
10:53AM 35.1308 -97.5786 173° South 289 333 12,400 2,760 Climbing Fort Worth Center
10:54AM 35.0328 -97.5658 174° South 327 376 14,900 2,400 Climbing Fort Worth Center
10:55AM 34.9286 -97.5478 172° South 361 415 17,200 1,500 Climbing Fort Worth Center
10:56AM 34.8283 -97.4969 157° South 372 428 17,900 720 Climbing Fort Worth Center
10:57AM 34.7261 -97.4414 156° South 390 449 18,700 900 Climbing Fort Worth Center
10:58AM 34.6178 -97.3858 157° South 401 461 19,800 1,140 Climbing Fort Worth Center
10:59AM 34.5092 -97.3303 157° South 414 476 21,000 1,200 Climbing Fort Worth Center
11:00AM 34.3986 -97.2928 164° South 419 482 22,200 1,320 Climbing Fort Worth Center
11:01AM 34.2817 -97.2728 172° South 419 482 23,700 1,500 Climbing Fort Worth Center
11:02AM 34.1650 -97.2528 172° South 429 494 25,200 1,440 Climbing Fort Worth Center
11:03AM 34.0647 -97.2331 171° South 423 487 26,600 1,440 Climbing Fort Worth Center
11:04AM 33.9500 -97.2106 171° South 423 487 28,100 1,380 Climbing Fort Worth Center
11:05AM 33.8308 -97.1908 172° South 423 487 29,400 1,200 Climbing Fort Worth Center
11:06AM 33.7097 -97.1711 172° South 428 493 30,500 1,080 Climbing Fort Worth Center
11:07AM 33.5867 -97.1517 173° South 440 506 31,600 1,020 Climbing Fort Worth Center
11:08AM 33.4592 -97.1297 172° South 453 521 32,600 960 Climbing Fort Worth Center
11:09AM 33.3278 -97.1053 171° South 465 535 33,600 960 Climbing Fort Worth Center
11:10AM 33.1961 -97.0833 172° South 477 549 34,600 960 Climbing Fort Worth Center
11:11AM 33.0625 -97.0564 170° South 485 558 35,600 1,020 Climbing Fort Worth Center
11:12AM 32.9100 -97.0347 173° South 503 579 36,700 660 Climbing Fort Worth Center
11:13AM 32.7869 -97.0156 173° South 503 579 37,000 120 Climbing Fort Worth Center
11:14AM 32.6281 -96.9892 172° South 513 590 37,000  Level Fort Worth Center
11:15AM 32.4819 -96.9653 172° South 524 603 37,000  Level Fort Worth Center
11:16AM 32.3336 -96.9414 172° South 529 609 37,000  Level Fort Worth Center
11:17AM 32.1872 -96.9175 172° South 534 615 37,000  Level Fort Worth Center
11:18AM 32.0411 -96.8961 173° South 534 615 37,000  Level Fort Worth Center
11:19AM 31.8947 -96.8703 171° South 539 620 37,000  Level Fort Worth Center
11:20AM 31.7783 -96.8525 173° South 530 610 37,000  Level Houston Center
11:21AM 31.6325 -96.8278 172° South 529 609 37,000  Level Houston Center
11:22AM 31.4867 -96.8036 172° South 530 610 37,000  Level Houston Center
11:23AM 31.3419 -96.7808 172° South 525 604 37,000 -1,140 Level Houston Center
11:24AM 31.2017 -96.7353 164° South 524 603 34,700 -2,640 Descending Houston Center
11:25AM 31.0742 -96.6661 155° Southeast 508 585 31,600 -3,300 Descending Houston Center
11:26AM 30.9178 -96.5825 155° Southeast 515 593 27,900 -3,420 Descending Houston Center
11:27AM 30.7844 -96.5111 155° Southeast 511 588 24,600 -3,120 Descending Houston Center
11:28AM 30.6581 -96.4456 156° South 499 574 21,500 -2,880 Descending Houston Center
11:29AM 30.5378 -96.3811 155° Southeast 479 551 18,700 -2,760 Descending Houston Center
11:30AM 30.4253 -96.3214 155° Southeast 434 499 16,100 -2,520 Descending Houston Center
11:31AM 30.3197 -96.2664 156° South 424 488 13,500 -2,340 Descending Houston Center
11:32AM 30.2169 -96.2122 156° South 410 472 11,100 -1,260 Descending Houston Center
11:33AM 30.0967 -96.1489 156° South 396 456 11,000 -60 Descending Houston Center
11:35AM 29.9881 -96.0903 155° Southeast 392 451 11,000 -120 Level Houston Center
11:36AM 29.9169 -96.0317 144° Southeast 359 413 10,800 -660 Descending Houston Center
11:37AM 29.8836 -95.9439 114° Southeast 310 357 9,700 -1,380 Descending Houston Center
11:38AM 29.8578 -95.8450 107° East 290 334 8,000 -1,440 Descending Houston Center
11:39AM 29.8347 -95.7703 110° East 287 330 6,700 -1,020 Descending Houston Center
11:40AM 29.8064 -95.6692 108° East 279 321 5,900 -1,080 Descending Houston Center
11:41AM 29.7817 -95.5856 109° East 277 319 4,500 -1,140 Descending Houston Center
11:42AM 29.7575 -95.5031 109° East 274 315 3,600 -1,200 Descending Houston Center
11:43AM 29.7283 -95.4078 109° East 247 284 2,000 -1,020 Descending Houston Center
11:44AM 29.7039 -95.3481 115° Southeast 233 268 1,600 -780 Descending Houston Center
11:45AM 29.6664 -95.3069 136° Southeast 158 182 600 -720 Descending Houston Center
11:46AM 29.6419 -95.2744 131° Southeast 179 206 200 -420 Descending Houston Center
11:48AM 29.6333 -95.2667 116° Southeast  Level FlightAware Approximate